Location: Dunedin
(45.8670°S, 170.5000°E)
Time: 16:14:44
(UTC+13:00)

Meteor 2-13 Rocket - Pass Details

Date: 24 January 2019
Orbit: 935 x 958 km, 82.5° (Epoch: 16 February)

Event Time Altitude Azimuth Distance (km) Brightness Sun altitude
Rises 22:28:41 0° 358° (N) 3,587 7.1 -10.6°
Reaches altitude 10° 22:31:08 10° 359° (N) 2,652 6.4 -10.9°
Maximum altitude 22:37:11 78° 83° (E) 976 4.4 -11.6°
Drops below altitude 10° 22:43:21 10° 168° (SSE) 2,697 7.3 -12.4°
Sets 22:45:53 0° 169° (S) 3,652 8.0 -12.7°
